Location: Bruneau Dunes Observatory
(42.9024°N, 115.6902°W)
Time: 09:17:00
(UTC-06:00)

Daily predictions for brighter satellites

Satellite Brightness Start Highest point End
(mag) Time Altitude Azimuth Time Altitude Azimuth Time Altitude Azimuth
Timation 2 Rocket 4.3 20:22:39 10° NNW 20:28:45 47° ENE 20:34:35 10° SE
Cosmos 372 Rocket 4.4 20:24:29 10° S 20:29:12 38° ESE 20:33:57 10° NE
Cosmos 158 Rocket 4.4 20:24:23 10° N 20:29:18 44° ENE 20:34:18 10° SE
Cosmos 1934 Rocket 4.1 20:25:20 10° S 20:31:27 87° W 20:37:33 10° N
Cosmos 1269 Rocket 4.2 20:28:56 10° NNW 20:34:10 57° ENE 20:39:22 10° SE
Cosmos 2082 Rocket 2.3 20:29:18 10° NNW 20:34:58 60° ENE 20:40:32 10° SE
Cosmos 1818 3.8 20:31:19 10° NW 20:36:48 79° WSW 20:42:12 10° SSE
CZ-3B DEB 3.5 20:26:44 10° WSW 20:38:09 60° NW 20:43:22 10° NE
Cosmos-2242 3.9 20:35:00 10° SSE 20:38:33 27° E 20:42:08 10° NNE
Cosmos 1766 Rocket 4.1 20:36:18 10° N 20:40:31 39° ENE 20:44:43 10° SSE
FengYun 1-2 T 4.3 20:38:40 10° SSE 20:44:14 79° ENE 20:49:54 10° NNW
BREEZE-M DEB (TANK) 3.0 20:43:53 10° SW 20:46:37 72° SE 20:53:38 10° ENE
ALOS 2.4 20:42:42 10° SSE 20:47:22 84° WSW 20:52:05 10° NNW
Cosmos 1271 Rocket 3.5 20:44:35 10° SSE 20:48:09 32° E 20:51:45 10° NNE
Cosmos 1674 3.0 20:46:38 10° N 20:50:17 44° ENE 20:53:56 10° SSE
GP-B 3.6 20:47:42 10° SSE 20:51:46 37° E 20:55:53 10° NNE
Meteor 1-4 Rocket 2.3 20:48:50 10° S 20:52:18 82° E 20:55:48 10° NNE
Timation 1 Rocket 4.5 20:48:28 10° SSW 20:54:29 83° WNW 21:00:33 10° NNE
USA 186 2.1 20:54:25 17° ESE 20:55:26 23° ENE 20:57:18 10° NNE
Spot 2 Rocket 3.5 20:52:24 10° SSE 20:57:29 75° ENE 21:02:36 10° N
Cosmos 1758 3.4 20:55:03 10° S 20:59:01 84° W 21:03:03 10° N
Cosmos 1184 Rocket 4.2 20:57:48 10° NNE 21:00:28 21° ENE 21:01:49 17° ESE
Resurs 01 Rocket 1.6 20:58:43 10° SSE 21:03:09 90° WNW 21:07:36 10° NNW
GPS 2-05 Rocket1 4.3 21:00:46 10° SW 21:03:43 25° S 21:05:45 16° SE
Cosmos 1953 2.5 21:00:28 10° S 21:04:31 80° W 21:08:36 10° N
Cosmos 2098 Rocket 4.5 20:59:22 10° S 21:06:49 86° E 21:14:22 10° N
Cosmos 1544 4.1 21:04:00 10° SSW 21:07:33 50° W 21:11:10 10° N
Cosmos 482 Debris 2.7 21:08:49 10° NW 21:10:36 49° NNE 21:10:54 42° ENE
Cosmos 1743 Rocket 4.1 21:07:19 10° N 21:11:30 39° ENE 21:14:55 15° SE
Cosmos 1500 Rocket 4.4 21:08:15 10° NNE 21:12:02 29° ENE 21:14:04 20° ESE
CZ-4C R/B 3.7 21:10:46 10° SSE 21:17:57 - ENE 21:12:09 14° SE
Cosmos 1867 4.1 21:08:59 10° SW 21:14:24 65° NW 21:19:51 10° NNE
CZ-4B DEB 3.4 21:14:22 25° ESE 21:15:34 34° ENE 21:18:25 10° N
Envisat 3.4 21:11:41 13° SE 21:15:48 42° ENE 21:20:35 10° N
SeaSat 1 3.0 21:14:39 10° SSE 21:19:30 60° WSW 21:24:24 10° NW
Cosmos 1939 Rocket 3.7 21:17:33 21° ESE 21:19:34 34° ENE 21:23:20 10° N
Lacrosse 5 rocket 1.3 21:19:43 10° NW 21:23:39 68° SW 21:25:52 23° SSE
ERS-1 Rocket 3.9 21:23:12 22° ESE 21:25:09 29° ENE 21:29:27 10° N
CZ-2D R/B 3.6 21:21:36 10° S 21:25:26 65° W 21:29:20 10° NNW
Cosmos 2369 Rocket 3.2 21:23:53 21° SE 21:25:29 23° ESE 21:29:49 10° NE
Helios 1B rocket 2.4 21:21:46 10° NNE 21:25:52 60° ESE 21:29:55 10° S
ISS -3.5 21:22:56 10° WSW 21:26:10 65° NNW 21:28:31 17° NE
Cosmos 2100 Rocket 4.0 21:19:55 10° S 21:26:13 76° E 21:32:36 10° N
Cosmos 2151 3.8 21:23:27 10° NNE 21:27:12 30° ENE 21:28:05 27° E
Geosat 4.0 21:22:21 10° NE 21:27:20 58° ESE 21:32:17 10° SSW
Cosmos 1408 Rocket 4.1 21:25:56 10° NNW 21:30:22 62° W 21:34:46 10° S
BREEZE-M DEB (TANK) 3.1 21:32:21 10° NW 21:34:30 34° NNE 21:35:06 30° NE
MINOTAUR R/B 4.3 21:32:52 10° SSW 21:35:45 87° WNW 21:38:40 10° NNE
Cosmos 1833 Rocket 3.5 21:30:49 10° NW 21:36:13 49° WSW 21:41:36 10° S
TIMED 4.4 21:34:19 10° SSW 21:38:41 82° ESE 21:43:05 10° NNE
CZ-4B DEB 4.5 21:37:12 22° SSE 21:39:23 87° W 21:42:59 10° NNW
Tsikada Rocket 4.4 21:33:36 10° N 21:39:31 43° ENE 21:42:24 27° SE
Cosmos 1733 3.7 21:36:34 10° SSW 21:40:23 63° W 21:44:16 10° N
H-2A R/B 4.0 21:40:24 14° ENE 21:40:36 14° ENE 21:43:07 10° NNE
CZ-3 Stage 3 4.1 21:03:42 10° W 21:41:32 47° SSW 21:46:33 23° SE
Cosmos 1842 Rocket 3.4 21:42:49 10° S 21:47:12 69° E 21:51:35 10° NNE
ATLAS 5 CENTAUR R/B 2.7 21:42:46 10° SW 21:47:23 51° NW 21:52:26 10° NNE
Meteor 1-29 2.9 21:44:31 10° NNE 21:48:01 87° W 21:51:30 10° SSW
Cosmos 1470 3.8 21:44:13 10° SSW 21:48:04 48° W 21:51:56 10° N
Cosmos 1802 Rocket 3.9 21:45:16 10° S 21:51:24 88° W 21:57:38 10° N
Helios 1A 3.7 21:49:20 12° S 21:53:06 52° W 21:57:14 10° NNW
Lacrosse 5 4.2 22:01:05 10° WNW 22:04:47 20° NNW 22:08:31 10° NNE
Cosmos 1340 Rocket 4.5 22:02:04 10° NNW 22:05:40 33° W 22:09:08 11° SSW
Cosmos 1356 Rocket 3.6 22:04:47 10° NNW 22:08:52 66° W 22:09:54 45° SSW
YAOGAN 6 2.9 22:09:57 57° NNE 22:09:57 57° NNE 22:13:05 10° N
MetOp-A 4.3 22:09:32 48° E 22:10:10 50° ENE 22:15:20 10° N
SPOT 5 3.6 22:10:42 41° ENE 22:10:53 42° ENE 22:15:50 10° N
Terra 4.1 22:14:14 12° NE 22:14:14 12° NE 22:15:10 10° NNE
Cosmos 2251 Rocket 3.9 22:09:28 10° NNW 22:14:45 63° WSW 22:17:07 32° S
ARGOS 3.6 22:17:53 43° ENE 22:17:53 43° ENE 22:22:50 10° N
Cosmos 2233 Rocket 4.0 22:18:00 51° ESE 22:18:48 55° E 22:24:47 10° NNE
YAOGAN 11 4.3 22:21:17 59° NE 22:21:17 59° NE 22:25:22 10° N
USA 215 3.2 22:17:49 10° NE 22:24:16 60° SE 22:30:42 10° SW
SPOT 1/Viking Rocket 4.4 22:24:58 36° NE 22:24:58 36° NE 22:29:05 10° N
Cosmos 1864 Rocket 4.5 22:18:55 11° S 22:25:00 85° W 22:31:20 10° N
SL-14 R/B 4.4 22:21:52 10° NNW 22:25:32 41° W 22:26:15 36° WSW
Cosmos 389 Rocket 3.9 22:32:05 37° WNW 22:32:05 37° WNW 22:35:05 10° N
Cosmos 2221 3.4 22:34:55 42° N 22:34:55 42° N 22:37:53 10° N
Cosmos 2058 3.8 22:38:08 10° NNW 22:41:47 46° WNW 22:41:47 46° WNW
Cosmos 1626 4.0 22:42:42 10° NNW 22:44:35 28° NNW 22:44:35 28° NNW
H-2A R/B 4.3 22:51:00 17° NNE 22:51:00 17° NNE 22:52:06 10° N
MOS 1-B Rocket 4.4 22:48:46 60° ESE 22:49:36 64° ENE 22:56:19 10° N
CZ-3B DEB 3.8 22:45:37 10° WNW 22:50:13 19° NNW 22:52:05 15° NNE
Gblst 52 Del rocket 4.2 22:47:11 10° WSW 22:53:02 73° NNW 22:53:20 71° N
USA 267 3.7 22:56:11 44° NE 22:57:13 48° NNE 23:03:26 10° NW
CZ-4C R/B 2.5 22:56:30 10° SW 23:02:38 60° N 23:07:48 10° NNE
ISS -0.5 23:00:33 10° WNW 23:01:12 13° NW 23:01:12 13° NW
ERS-1 Rocket 4.2 23:03:12 34° WSW 23:03:48 35° W 23:08:26 10° NNW
Cosmos 2369 Rocket 2.9 23:03:37 10° SW 23:09:07 52° WNW 23:14:36 10° NNE
H-2A R/B 3.0 23:21:02 44° NNW 23:21:02 44° NNW 23:24:35 10° NNW
Cosmos 2227 Rocket 4.3 23:21:09 10° N 23:23:34 16° NNE 23:23:34 16° NNE
Cosmos 1943 Rocket 3.7 23:31:54 28° NNE 23:31:54 28° NNE 23:34:31 10° NNE
Lacrosse 5 4.3 23:46:12 10° NNW 23:49:23 17° N 23:49:23 17° N
Terra 4.0 23:53:07 22° NNW 23:53:07 22° NNW 23:54:46 10° NNW
ATLAS 3B R/B 4.3 23:54:40 25° NE 23:54:40 25° NE 23:57:21 10° NE
